This demonstration page uses our WeatherBlox Daily Observations layout. Learn more.

Left ArrowRight Arrow

41.86663, -103.66717

Hourly Observations for June 5, 2022

Temp ( °F °C ) Dew Point ( °F °C ) Humidity (%) Winds ( mph kmh ) Pressure ( in mb ) Visibility ( mi km ) Precip ( " mm )
12:53 am 00:53 Clear 64 17.8 56 13.3 75 75 ENE 17 28 29.68 1005 10 16 0.00 0.00
1:53 am 01:53 Clear 62 16.7 56 13.3 80 80 E 10 17 29.66 1004 10 16 0.00 0.00
2:53 am 02:53 Clear 60 15.6 55 12.8 84 84 ESE 6 9 29.65 1004 10 16 0.00 0.00
3:53 am 03:53 Clear 60 15.6 55 12.8 84 84 NNE 7 11 29.66 1005 10 16 0.00 0.00
4:53 am 04:53 Clear 58 14.4 55 12.8 90 90 NNE 6 9 29.66 1005 10 16 0.00 0.00
5:53 am 05:53 Sunny 56 13.3 54 12.2 93 93 Calm 29.67 1005 8 13 0.00 0.00
6:53 am 06:53 Mostly Cloudy 61 16.1 57 13.9 87 87 WNW 3 6 29.68 1005 10 16 0.00 0.00
7:04 am 07:04 Mostly Cloudy 61 16 57 14 88 88 Calm 29.68 1005 10 16 0.00 0.00
7:13 am 07:13 Mostly Cloudy 61 16.1 57 13.9 87 87 NNW 5 7 29.68 1005 10 16 0.00 0.00
7:25 am 07:25 Mostly Cloudy 61 16.1 57 13.9 87 87 ENE 3 6 29.67 1005 10 16 0.00 0.00
7:53 am 07:53 Mostly Cloudy 62 16.7 57 13.9 84 84 ESE 8 13 29.67 1005 10 16 0.00 0.00
8:09 am 08:09 Partly Cloudy 63 17.2 57 13.9 81 81 ESE 13 20 29.63 1003 10 16 0.00 0.00
8:32 am 08:32 Mostly Cloudy 63 17.2 57 13.9 81 81 SE 8 13 29.62 1003 10 16 0.00 0.00
8:53 am 08:53 Mostly Cloudy 63 17.2 57 13.9 81 81 SSE 12 19 29.66 1004 9 14 0.00 0.00
9:20 am 09:20 Mostly Cloudy 64 17.8 57 13.9 78 78 SSE 8 13 29.63 1004 10 16 0.00 0.00
9:46 am 09:46 Partly Cloudy 66 18.9 57 13.9 73 73 SSE 7 11 29.61 1003 10 16 0.00 0.00
9:53 am 09:53 Mostly Sunny 67 19.4 58 14.4 73 73 VRB 6 9 29.66 1004 10 16 0.00 0.00
10:53 am 10:53 Sunny 73 22.8 58 14.4 59 59 undefined N/A 29.64 1004 10 16 0.00 0.00
11:53 am 11:53 Mostly Sunny 80 26.7 49 9.4 34 34 W 15 24 29.61 1003 10 16 0.00 0.00
12:53 pm 12:53 Sunny 82 27.8 46 7.8 28 28 NW 18 30 29.61 1003 10 16 0.00 0.00
1:53 pm 13:53 Mostly Sunny 82 27.8 46 7.8 28 28 NW 10 17 29.60 1002 10 16 0.00 0.00
2:53 pm 14:53 Mostly Sunny 82 27.8 46 7.8 28 28 NW 14 22 29.59 1002 10 16 0.00 0.00
3:53 pm 15:53 Partly Cloudy 82 27.8 48 8.9 31 31 NNW 18 30 29.58 1002 10 16 0.00 0.00
4:53 pm 16:53 Mostly Cloudy 81 27.2 50 10 34 34 NNW 16 26 29.59 1002 10 16 0.00 0.00
5:53 pm 17:53 Sunny 78 25.6 51 10.6 39 39 NNE 15 24 29.61 1003 10 16 0.00 0.00
6:53 pm 18:53 Sunny 77 25 51 10.6 40 40 NNE 12 19 29.61 1003 10 16 0.00 0.00
7:53 pm 19:53 Sunny 73 22.8 52 11.1 48 48 NNE 7 11 29.62 1003 10 16 0.00 0.00
8:53 pm 20:53 Clear 70 21.1 54 12.2 57 57 NE 12 19 29.64 1004 10 16 0.00 0.00
9:41 pm 21:41 Cloudy with Nearby Thunderstorms 66 18.9 57 13.9 73 73 E 12 19 29.61 1003 10 16 0.00 0.00
9:53 pm 21:53 Cloudy with Nearby Thunderstorms 67 19.4 57 13.9 71 71 WSW 3 6 29.70 1006 10 16 0.00 0.00
10:21 pm 22:21 undefined 65 18.3 58 14.4 78 78 S 8 13 29.66 1004 10 16 0.01 0.25
10:53 pm 22:53 Clear 63 17.2 58 14.4 84 84 SSE 5 7 29.68 1005 10 16 0.01 0.25
11:53 pm 23:53 Mostly Clear 60 15.6 56 13.3 86 86 SSE 3 6 29.67 1005 10 16 0.00 0.00

Powered by AerisWeather